STARLINK-31458, 59501

Orbit data source: Space-Track

STARLINK-31458, 59501 is a payload satellite owned by SpaceX/Seattle (US) in LEO that was launched on Sat, 13 Apr 2024 UTC via an FALCON 9 launch vehicle from the Air Force Eastern Test Range (AFETR). Payload-class satellites include a variety of spacecraft equipped with specific instruments for various scientific and technological missions. These include communications satellites like Starlink; space stations such as the ISS; scientific satellites like the Hubble; Earth observation satellites from companies like Planet Labs, Umbra, and HawkEye 360; GPS; miniature CubeSats for education and research; and military/defense satellites.

Loading next visibility...
Identifier
59501, 2024-071T
Orbit
LEO
Country
Flag of USUS
Related business
Manufacturer
SpaceX/Seattle
Mission
Operational Commercial Communications
Bus & Motor
STARLINK V2M, Unknown motor
Mass
730 kg wet, ~700 kg dry
Launch date (UTC)
2024-04-13 (2 years ago)
Launch vehicle
FALCON 9
Launch site
Air Force Eastern Test Range (AFETR)
Object type
Payload
Rocket body
Debris
Shape & HBR
Box + 2 Pan, 17.7 m
Radar Cross Section
33.884 m², Large (>1 m²)

Expand to show TLE details & history
Last TLE update: 2 days ago

TLE from 2 days ago
0 STARLINK-31458
1 59501U 24071T   26171.19187138 -.00000839  00000-0 -20991-4 0  9996
2 59501  43.0033 120.7210 0001340 265.4997  94.5702 15.27567496123889
Epoch: 2026-06-20T04:36Z
TLE epoch observation values (Epoch: 2026-06-20T04:36:17.687Z)
Latitude
0.00002°
Longitude
143.23729°
Altitude
482.936 km
Speed
7.626 km/s
True Right ascension
08h 02m 53s
True Declination
0° 00' 00"
Sunlit
Object was in daylight at epoch
Visualization orbit readout
Latitude
Unknown
Longitude
Unknown
Altitude
Unknown
Speed
Unknown
Apparent Right ascension
Unknown
Apparent Declination
Unknown
Sunlit
N/A
Visualization observer readout
Local Sidereal Time
21:29:12
Azimuth
Unknown
Elevation
Unknown
Doppler factor
Unknown
Orbital elements
Apogee altitude
485.951 km
Perigee altitude
484.111 km
Semi-major axis
6,863.168 km
Eccentricity
0.00013
Inclination
43.0033°
RAAN
120.721°
Arg. of periapsis
265.4997°
True anomaly
94.58551°
Mean anomaly
94.5702°
Eccentric anomaly
94.57785°
Mean motion
3.8173 °/min
Orbital period
94.31 mins
BSTAR
-0.000020991
Loading maneuver chart data...
Computing Atmospheric mass density...
Loading historical data...
Loading historical data...
Loading historical data...
Loading historical data...
Loading historical data...
Loading historical data...
Loading historical data...

Documentation

Showing up to 5 results
|